• In Czech Republic
  • List of Countries
  • For 7 days
  • Water Temperature
  • Satellite Maps
  • Weather Map
  • Weather Widgets
  • user-avatar
    Login

    Hourly Weather Brikama

    Today, 19 October, Friday

    Time Temperature Precipitation Wind Pressure Humidity
    00:00 +29°C° 0 mm 3 mps 754 mmHg 67%
    01:00 +29°C° 0 mm 3 mps 754 mmHg 66%
    02:00 +28°C° 0 mm 3 mps 754 mmHg 65%
    03:00 +28°C° 0 mm 3 mps 754 mmHg 65%
    04:00 +28°C° 0 mm 3 mps 754 mmHg 64%
    05:00 +27°C° 0 mm 2 mps 754 mmHg 63%
    06:00 +28°C° 0 mm 2 mps 754 mmHg 59%
    07:00 +29°C° 0 mm 2 mps 755 mmHg 56%
    08:00 +30°C° 0 mm 2 mps 755 mmHg 52%
    09:00 +32°C° 0 mm 2 mps 755 mmHg 46%
    10:00 +35°C° 0 mm 2 mps 755 mmHg 41%
    11:00 +36°C° 0 mm 1 mps 755 mmHg 35%
    12:00 +38°C° 0 mm 2 mps 754 mmHg 35%
    13:00 +38°C° 0 mm 2 mps 753 mmHg 34%
    14:00 +39°C° 0 mm 3 mps 753 mmHg 33%
    15:00 +37°C° 0 mm 3 mps 753 mmHg 41%
    16:00 +35°C° 0 mm 4 mps 753 mmHg 50%
    17:00 +34°C° 0 mm 4 mps 753 mmHg 58%
    18:00 +33°C° 0.2 mm 4 mps 753 mmHg 63%
    19:00 +32°C° 0.2 mm 4 mps 754 mmHg 68%
    20:00 +30°C° 0.2 mm 3 mps 754 mmHg 72%
    21:00 +30°C° 0 mm 3 mps 754 mmHg 74%
    22:00 +29°C° 0 mm 2 mps 755 mmHg 75%
    23:00 +29°C° 0 mm 1 mps 755 mmHg 76%

    Tomorrow, 20 October, Saturday

    Time Temperature Precipitation Wind Pressure Humidity
    00:00 +29°C° 0 mm 1 mps 755 mmHg 77%
    01:00 +29°C° 0 mm 1 mps 755 mmHg 78%
    02:00 +29°C° 0 mm 1 mps 754 mmHg 79%
    03:00 +29°C° 0.1 mm 1 mps 754 mmHg 78%
    04:00 +28°C° 0.1 mm 1 mps 754 mmHg 78%
    05:00 +28°C° 0.1 mm 1 mps 755 mmHg 78%
    06:00 +29°C° 0.1 mm 1 mps 755 mmHg 74%
    07:00 +30°C° 0.1 mm 1 mps 755 mmHg 71%
    08:00 +31°C° 0.1 mm 1 mps 756 mmHg 67%
    09:00 +32°C° 0 mm 1 mps 756 mmHg 61%
    10:00 +34°C° 0 mm 2 mps 756 mmHg 54%
    11:00 +36°C° 0 mm 2 mps 756 mmHg 48%
    12:00 +36°C° 0 mm 2 mps 755 mmHg 47%
    13:00 +36°C° 0 mm 3 mps 755 mmHg 47%
    14:00 +36°C° 0 mm 3 mps 754 mmHg 46%
    15:00 +35°C° 0 mm 3 mps 754 mmHg 51%
    16:00 +34°C° 0 mm 3 mps 754 mmHg 55%
    17:00 +33°C° 0 mm 3 mps 754 mmHg 59%
    18:00 +31°C° 0 mm 3 mps 754 mmHg 62%
    19:00 +31°C° 0 mm 3 mps 755 mmHg 64%
    20:00 +30°C° 0 mm 4 mps 755 mmHg 67%
    21:00 +30°C° 0.1 mm 4 mps 755 mmHg 69%
    22:00 +30°C° 0.1 mm 4 mps 755 mmHg 71%
    23:00 +29°C° 0.1 mm 4 mps 755 mmHg 73%

    Day after tomorrow, 21 October, Sunday

    Time Temperature Precipitation Wind Pressure Humidity
    00:00 +29°C° 0 mm 4 mps 755 mmHg 73%
    01:00 +29°C° 0 mm 3 mps 755 mmHg 73%
    02:00 +29°C° 0 mm 3 mps 754 mmHg 73%
    03:00 +29°C° 0 mm 3 mps 754 mmHg 72%
    04:00 +28°C° 0 mm 3 mps 754 mmHg 71%
    05:00 +28°C° 0 mm 3 mps 754 mmHg 70%
    06:00 +29°C° 0 mm 3 mps 755 mmHg 67%
    07:00 +30°C° 0 mm 3 mps 755 mmHg 63%
    08:00 +31°C° 0 mm 3 mps 755 mmHg 59%
    09:00 +34°C° 0 mm 3 mps 755 mmHg 51%
    10:00 +36°C° 0 mm 3 mps 755 mmHg 44%
    11:00 +38°C° 0 mm 4 mps 755 mmHg 36%
    12:00 +40°C° 0 mm 4 mps 755 mmHg 34%
    13:00 +40°C° 0 mm 4 mps 754 mmHg 33%
    14:00 +41°C° 0 mm 4 mps 753 mmHg 31%
    15:00 +38°C° 0 mm 4 mps 753 mmHg 39%
    16:00 +37°C° 0 mm 5 mps 753 mmHg 46%
    17:00 +35°C° 0 mm 6 mps 753 mmHg 53%
    18:00 +34°C° 0 mm 6 mps 754 mmHg 56%
    19:00 +33°C° 0 mm 6 mps 754 mmHg 59%
    20:00 +32°C° 0 mm 6 mps 755 mmHg 62%
    21:00 +32°C° 0 mm 6 mps 755 mmHg 62%
    22:00 +30°C° 0 mm 6 mps 755 mmHg 62%
    23:00 +30°C° 0 mm 5 mps 755 mmHg 62%

    22 October, Monday

    Time Temperature Precipitation Wind Pressure Humidity
    00:00 +30°C° 0 mm 5 mps 755 mmHg 63%
    01:00 +29°C° 0 mm 5 mps 754 mmHg 63%
    02:00 +29°C° 0 mm 5 mps 754 mmHg 64%
    03:00 +29°C° 0 mm 5 mps 754 mmHg 62%
    04:00 +29°C° 0 mm 6 mps 754 mmHg 61%
    05:00 +29°C° 0 mm 6 mps 754 mmHg 60%
    06:00 +30°C° 0 mm 6 mps 754 mmHg 57%
    07:00 +30°C° 0 mm 7 mps 755 mmHg 53%
    08:00 +32°C° 0 mm 7 mps 755 mmHg 50%
    09:00 +34°C° 0 mm 7 mps 755 mmHg 45%
    10:00 +35°C° 0 mm 7 mps 755 mmHg 40%
    11:00 +38°C° 0 mm 7 mps 755 mmHg 35%
    12:00 +39°C° 0 mm 6 mps 755 mmHg 33%
    13:00 +40°C° 0 mm 6 mps 754 mmHg 31%
    14:00 +41°C° 0 mm 5 mps 753 mmHg 29%
    15:00 +40°C° 0 mm 5 mps 753 mmHg 33%
    16:00 +39°C° 0 mm 5 mps 753 mmHg 37%
    17:00 +38°C° 0 mm 6 mps 753 mmHg 41%
    18:00 +36°C° 0 mm 6 mps 754 mmHg 42%
    19:00 +34°C° 0 mm 7 mps 754 mmHg 44%
    20:00 +33°C° 0 mm 8 mps 755 mmHg 46%
    21:00 +33°C° 0 mm 7 mps 755 mmHg 47%
    22:00 +32°C° 0 mm 7 mps 755 mmHg 48%
    23:00 +32°C° 0 mm 7 mps 755 mmHg 49%

    23 October, Tuesday

    Time Temperature Precipitation Wind Pressure Humidity
    00:00 +30°C° 0 mm 6 mps 755 mmHg 49%
    01:00 +30°C° 0 mm 6 mps 755 mmHg 50%
    02:00 +30°C° 0 mm 5 mps 754 mmHg 50%
    03:00 +29°C° 0 mm 5 mps 754 mmHg 50%
    04:00 +29°C° 0 mm 4 mps 754 mmHg 51%
    05:00 +28°C° 0 mm 4 mps 755 mmHg 51%
    06:00 +29°C° 0 mm 4 mps 755 mmHg 51%
    07:00 +30°C° 0 mm 4 mps 756 mmHg 50%
    08:00 +32°C° 0 mm 4 mps 756 mmHg 49%
    09:00 +34°C° 0 mm 4 mps 756 mmHg 45%
    10:00 +35°C° 0 mm 3 mps 756 mmHg 41%
    11:00 +37°C° 0 mm 2 mps 756 mmHg 36%
    12:00 +38°C° 0 mm 3 mps 755 mmHg 35%
    13:00 +39°C° 0 mm 3 mps 754 mmHg 34%
    14:00 +39°C° 0 mm 3 mps 754 mmHg 33%
    15:00 +38°C° 0 mm 4 mps 754 mmHg 40%
    16:00 +36°C° 0 mm 4 mps 754 mmHg 47%
    17:00 +34°C° 0 mm 5 mps 754 mmHg 54%
    18:00 +33°C° 0 mm 4 mps 754 mmHg 58%
    19:00 +32°C° 0 mm 4 mps 755 mmHg 63%
    20:00 +30°C° 0 mm 4 mps 756 mmHg 67%
    21:00 +30°C° 0 mm 3 mps 756 mmHg 69%
    22:00 +29°C° 0 mm 3 mps 756 mmHg 70%
    23:00 +29°C° 0 mm 3 mps 756 mmHg 72%

    24 October, Wednesday

    Time Temperature Precipitation Wind Pressure Humidity
    00:00 +29°C° 0 mm 3 mps 755 mmHg 73%
    01:00 +29°C° 0 mm 3 mps 755 mmHg 74%
    02:00 +28°C° 0 mm 3 mps 755 mmHg 75%
    03:00 +28°C° 0 mm 3 mps 755 mmHg 77%
    04:00 +28°C° 0 mm 4 mps 755 mmHg 78%
    05:00 +28°C° 0 mm 4 mps 755 mmHg 80%
    06:00 +29°C° 0 mm 4 mps 756 mmHg 77%
    07:00 +30°C° 0 mm 4 mps 756 mmHg 74%
    08:00 +30°C° 0 mm 4 mps 756 mmHg 71%
    09:00 +33°C° 0 mm 4 mps 756 mmHg 63%
    10:00 +35°C° 0 mm 4 mps 756 mmHg 55%
    11:00 +36°C° 0 mm 3 mps 756 mmHg 47%
    12:00 +37°C° 0 mm 4 mps 755 mmHg 46%
    13:00 +37°C° 0 mm 4 mps 754 mmHg 44%
    14:00 +38°C° 0 mm 4 mps 753 mmHg 43%
    15:00 +36°C° 0 mm 5 mps 753 mmHg 51%
    16:00 +35°C° 0 mm 5 mps 754 mmHg 58%
    17:00 +33°C° 0 mm 6 mps 754 mmHg 66%
    18:00 +33°C° 0 mm 6 mps 754 mmHg 68%
    19:00 +32°C° 0 mm 6 mps 754 mmHg 69%
    20:00 +30°C° 0 mm 6 mps 755 mmHg 71%
    21:00 +30°C° 0 mm 5 mps 755 mmHg 71%
    22:00 +29°C° 0 mm 5 mps 755 mmHg 71%
    23:00 +29°C° 0 mm 4 mps 755 mmHg 71%
    Show more